Meath Environmental Platform

Observations for Trim Market St

Time AQI Temp °C Hum % Pres Pa CO μg/m³ H₂S μg/m³ NO μg/m³ NO₂ μg/m³ O₃ μg/m³ SO₂ μg/m³ PM1 μg/m³ PM2.5 μg/m³ PM10 μg/m³
Tuesday 14 July 2026
20:55 2 22.3 48 58,217 0 6.65 0 12.25 34.23 0 4.99 9.25 12.06
20:54 2 22.3 48 58,878 0 6.25 0 14.89 28.66 0 3.56 6.68 9.8
20:53 2 22.3 48 59,691 0 4.64 0 13.91 28.3 0 3.56 7.21 9.04
20:52 2 22.3 48 60,159 0 2.37 0 10.93 31.58 0 4.28 8.25 11.33
20:45 2 22.5 46 62,444 0 0 0 6.94 32.15 0 2.85 5.74 6.76
20:44 2 22.6 46 62,484 0 0 0 7.32 31.66 0 2.85 6.78 12.14
20:43 2 22.6 46 62,616 0 0 0 6.73 30.65 0 4.28 7.83 9.83
20:42 2 22.6 46 62,679 0 0 0 7.64 30.64 0 4.28 8.35 10.61
20:39 2 22.7 46 62,813 0 0 0 7.64 28.45 0 2.85 6.28 7.53
20:38 2 22.7 46 62,859 0 0 0 8.14 32.17 0 2.85 7.32 9.84
20:36 2 22.8 46 62,928 0 0 0 6.74 32.27 0 3.56 6.81 8.3
20:31 2 23 46 62,966 0 0 0 4.88 25.31 0 4.28 7.33 10.62
20:30 2 23 46 62,804 0 0 0 5.56 25.1 0 2.85 7.84 9.84
20:29 2 23 46 62,624 0 0 0 7.76 29.98 0 2.14 6.8 8.3
20:28 2 23 46 62,535 0 0 0 8.87 31.74 0 2.85 6.29 8.3
20:27 2 23.1 46 62,567 0 0 0 8.44 30.48 0 4.28 6.81 9.07
20:26 2 23.1 46 62,572 0 0 0 8.35 32.98 0 4.28 7.33 9.07
20:24 2 23.1 45 62,563 0 0 0 8.37 30.11 0 2.85 6.82 9.85
20:16 2 23.3 45 63,125 0 1.23 0 9.9 33.3 0 4.28 7.38 9.86
20:15 2 23.4 44 63,203 0 1.18 0 10.3 31.32 0 4.28 7.4 9.86